Time,TemperatureF,DewpointF,PressureIn,WindDirection,WindDirectionDegrees,WindSpeedMPH,WindSpeedGustMPH,Humidity,HourlyPrecipIn,Conditions,Clouds,dailyrainin,SoftwareType,DateUTC
2013-04-27 00:03:00,52.0,31.0,30.39,NNE,32,0.0,2.0,44,0.00,,,0.00,,2013-04-27 04:03:00,
2013-04-27 00:13:00,52.0,31.0,30.39,NNE,32,0.0,2.0,44,0.00,,,0.00,,2013-04-27 04:13:00,
2013-04-27 00:23:00,51.0,30.0,30.39,NNE,32,0.0,2.0,44,0.00,,,0.00,,2013-04-27 04:23:00,
2013-04-27 00:33:00,51.0,30.0,30.39,NE,35,0.0,2.0,45,0.00,,,0.00,,2013-04-27 04:33:00,
2013-04-27 00:43:00,51.0,30.0,30.39,NE,35,0.0,2.0,45,0.00,,,0.00,,2013-04-27 04:43:00,
2013-04-27 00:53:00,50.0,30.0,30.40,NE,35,0.0,1.0,46,0.00,,,0.00,,2013-04-27 04:53:00,
2013-04-27 01:02:00,50.0,31.0,30.40,NE,35,0.0,1.0,47,0.00,,,0.00,,2013-04-27 05:02:00,
2013-04-27 01:12:00,50.0,31.0,30.40,NE,35,0.0,1.0,47,0.00,,,0.00,,2013-04-27 05:12:00,
2013-04-27 01:22:00,49.0,30.0,30.40,NE,35,0.0,1.0,48,0.00,,,0.00,,2013-04-27 05:22:00,
2013-04-27 01:32:00,48.0,31.0,30.40,NE,35,0.0,0.0,52,0.00,,,0.00,,2013-04-27 05:32:00,
2013-04-27 01:42:00,48.0,31.0,30.40,NE,35,0.0,0.0,52,0.00,,,0.00,,2013-04-27 05:42:00,
2013-04-27 01:52:00,47.0,31.0,30.40,NE,34,0.0,0.0,54,0.00,,,0.00,,2013-04-27 05:52:00,
2013-04-27 02:02:00,46.0,31.0,30.40,NE,34,0.0,0.0,56,0.00,,,0.00,,2013-04-27 06:02:00,
2013-04-27 02:12:00,46.0,31.0,30.40,NE,34,0.0,0.0,56,0.00,,,0.00,,2013-04-27 06:12:00,
2013-04-27 02:22:00,46.0,32.0,30.40,NE,34,0.0,0.0,59,0.00,,,0.00,,2013-04-27 06:22:00,
2013-04-27 02:32:00,45.0,32.0,30.39,NE,35,0.0,0.0,61,0.00,,,0.00,,2013-04-27 06:32:00,
2013-04-27 02:42:00,45.0,32.0,30.39,NE,35,0.0,0.0,61,0.00,,,0.00,,2013-04-27 06:42:00,
2013-04-27 02:52:00,45.0,31.0,30.39,NE,35,0.0,0.0,58,0.00,,,0.00,,2013-04-27 06:52:00,
2013-04-27 03:01:00,44.0,30.0,30.39,NE,35,0.0,0.0,58,0.00,,,0.00,,2013-04-27 07:01:00,
2013-04-27 03:11:00,44.0,30.0,30.39,NE,35,0.0,0.0,58,0.00,,,0.00,,2013-04-27 07:11:00,
2013-04-27 03:21:00,44.0,31.0,30.38,NE,35,0.0,0.0,59,0.00,,,0.00,,2013-04-27 07:21:00,
2013-04-27 03:32:00,44.0,31.0,30.39,NE,34,0.0,0.0,61,0.00,,,0.00,,2013-04-27 07:32:00,
2013-04-27 03:42:00,44.0,31.0,30.39,NE,34,0.0,0.0,61,0.00,,,0.00,,2013-04-27 07:42:00,
2013-04-27 03:52:00,43.0,30.0,30.39,NE,35,0.0,0.0,59,0.00,,,0.00,,2013-04-27 07:52:00,
2013-04-27 04:02:00,43.0,30.0,30.39,NE,34,0.0,0.0,61,0.00,,,0.00,,2013-04-27 08:02:00,
2013-04-27 04:11:00,43.0,30.0,30.39,NE,34,0.0,0.0,61,0.00,,,0.00,,2013-04-27 08:11:00,
2013-04-27 04:21:00,43.0,31.0,30.39,NE,34,0.0,0.0,63,0.00,,,0.00,,2013-04-27 08:21:00,
2013-04-27 04:33:00,43.0,30.0,30.39,NE,35,0.0,0.0,61,0.00,,,0.00,,2013-04-27 08:33:00,
2013-04-27 04:42:00,43.0,30.0,30.39,NE,35,0.0,0.0,61,0.00,,,0.00,,2013-04-27 08:42:00,
2013-04-27 04:52:00,43.0,31.0,30.39,NE,35,0.0,0.0,62,0.00,,,0.00,,2013-04-27 08:52:00,
2013-04-27 05:01:00,42.0,30.0,30.39,NE,35,0.0,0.0,61,0.00,,,0.00,,2013-04-27 09:01:00,
2013-04-27 05:11:00,42.0,30.0,30.39,NE,35,0.0,0.0,61,0.00,,,0.00,,2013-04-27 09:11:00,
2013-04-27 05:22:00,42.0,30.0,30.39,NE,35,0.0,0.0,61,0.00,,,0.00,,2013-04-27 09:22:00,
2013-04-27 05:33:00,42.0,31.0,30.39,NE,35,0.0,0.0,64,0.00,,,0.00,,2013-04-27 09:33:00,
2013-04-27 05:42:00,42.0,31.0,30.39,NE,35,0.0,0.0,64,0.00,,,0.00,,2013-04-27 09:42:00,
2013-04-27 05:53:00,41.0,29.0,30.38,NE,34,0.0,0.0,63,0.00,,,0.00,,2013-04-27 09:53:00,
2013-04-27 06:03:00,41.0,30.0,30.39,NE,34,0.0,0.0,65,0.00,,,0.00,,2013-04-27 10:03:00,
2013-04-27 06:12:00,41.0,30.0,30.39,NE,34,0.0,0.0,65,0.00,,,0.00,,2013-04-27 10:12:00,
2013-04-27 06:22:00,40.0,29.0,30.39,NE,34,0.0,0.0,65,0.00,,,0.00,,2013-04-27 10:22:00,
2013-04-27 06:33:00,40.0,31.0,30.40,NE,35,0.0,0.0,69,0.00,,,0.00,,2013-04-27 10:33:00,
2013-04-27 06:42:00,40.0,31.0,30.40,NE,35,0.0,0.0,69,0.00,,,0.00,,2013-04-27 10:42:00,
2013-04-27 06:52:00,40.0,31.0,30.40,NE,34,0.0,0.0,70,0.00,,,0.00,,2013-04-27 10:52:00,
2013-04-27 07:02:00,41.0,32.0,30.40,NE,34,0.0,0.0,70,0.00,,,0.00,,2013-04-27 11:02:00,
2013-04-27 07:12:00,41.0,32.0,30.40,NE,34,0.0,0.0,70,0.00,,,0.00,,2013-04-27 11:12:00,
2013-04-27 07:22:00,42.0,33.0,30.40,NE,34,0.0,0.0,69,0.00,,,0.00,,2013-04-27 11:22:00,
2013-04-27 07:32:00,43.0,33.0,30.40,NE,35,0.0,0.0,68,0.00,,,0.00,,2013-04-27 11:32:00,
2013-04-27 07:42:00,43.0,33.0,30.40,NE,35,0.0,0.0,68,0.00,,,0.00,,2013-04-27 11:42:00,
2013-04-27 07:52:00,45.0,33.0,30.40,NE,34,0.0,0.0,62,0.00,,,0.00,,2013-04-27 11:52:00,
2013-04-27 08:01:00,47.0,32.0,30.40,NE,34,0.0,1.0,55,0.00,,,0.00,,2013-04-27 12:01:00,
2013-04-27 08:11:00,47.0,32.0,30.40,NE,34,0.0,1.0,55,0.00,,,0.00,,2013-04-27 12:11:00,
2013-04-27 08:22:00,49.0,32.0,30.40,NNW,344,0.0,2.0,51,0.00,,,0.00,,2013-04-27 12:22:00,
2013-04-27 08:32:00,50.0,32.0,30.40,NW,305,0.0,4.0,49,0.00,,,0.00,,2013-04-27 12:32:00,
2013-04-27 08:42:00,50.0,32.0,30.40,NW,305,0.0,4.0,49,0.00,,,0.00,,2013-04-27 12:42:00,
2013-04-27 08:52:00,51.0,32.0,30.40,NNE,14,0.0,3.0,48,0.00,,,0.00,,2013-04-27 12:52:00,
2013-04-27 09:02:00,53.0,32.0,30.40,North,360,0.0,4.0,44,0.00,,,0.00,,2013-04-27 13:02:00,
2013-04-27 09:12:00,53.0,32.0,30.40,North,360,0.0,4.0,44,0.00,,,0.00,,2013-04-27 13:12:00,
2013-04-27 09:22:00,54.0,30.0,30.40,NE,41,1.0,4.0,40,0.00,,,0.00,,2013-04-27 13:22:00,
2013-04-27 09:32:00,55.0,31.0,30.40,WNW,301,0.0,4.0,39,0.00,,,0.00,,2013-04-27 13:32:00,
2013-04-27 09:42:00,55.0,31.0,30.40,WNW,301,0.0,4.0,39,0.00,,,0.00,,2013-04-27 13:42:00,
2013-04-27 09:52:00,55.0,31.0,30.40,ENE,60,0.0,4.0,39,0.00,,,0.00,,2013-04-27 13:52:00,
2013-04-27 10:02:00,56.0,30.0,30.40,NNW,344,0.0,3.0,37,0.00,,,0.00,,2013-04-27 14:02:00,
2013-04-27 10:11:00,56.0,30.0,30.40,NNW,344,0.0,3.0,37,0.00,,,0.00,,2013-04-27 14:11:00,
2013-04-27 10:22:00,56.0,31.0,30.40,NNE,22,0.0,4.0,38,0.00,,,0.00,,2013-04-27 14:22:00,
2013-04-27 10:32:00,57.0,30.0,30.40,NNE,22,1.0,4.0,35,0.00,,,0.00,,2013-04-27 14:32:00,
2013-04-27 10:42:00,57.0,30.0,30.40,NNE,22,1.0,4.0,35,0.00,,,0.00,,2013-04-27 14:42:00,
2013-04-27 10:52:00,58.0,31.0,30.40,West,281,0.0,3.0,35,0.00,,,0.00,,2013-04-27 14:52:00,
2013-04-27 11:01:00,58.0,28.0,30.40,WNW,287,0.0,2.0,32,0.00,,,0.00,,2013-04-27 15:01:00,
2013-04-27 11:12:00,58.0,28.0,30.40,WNW,287,0.0,2.0,32,0.00,,,0.00,,2013-04-27 15:12:00,
2013-04-27 11:22:00,59.0,30.0,30.40,WNW,286,1.0,5.0,33,0.00,,,0.00,,2013-04-27 15:22:00,
2013-04-27 11:33:00,59.0,28.0,30.39,NE,49,1.0,3.0,31,0.00,,,0.00,,2013-04-27 15:33:00,
2013-04-27 11:43:00,59.0,28.0,30.39,NE,49,1.0,3.0,31,0.00,,,0.00,,2013-04-27 15:43:00,
2013-04-27 11:53:00,60.0,29.0,30.38,North,5,0.0,5.0,31,0.00,,,0.00,,2013-04-27 15:53:00,
2013-04-27 12:03:00,61.0,29.0,30.37,NNE,30,1.0,4.0,30,0.00,,,0.00,,2013-04-27 16:03:00,
2013-04-27 12:13:00,61.0,29.0,30.37,NNE,30,1.0,4.0,30,0.00,,,0.00,,2013-04-27 16:13:00,
2013-04-27 12:22:00,62.0,29.0,30.37,North,355,0.0,3.0,28,0.00,,,0.00,,2013-04-27 16:22:00,
2013-04-27 12:33:00,62.0,29.0,30.37,NE,36,1.0,4.0,28,0.00,,,0.00,,2013-04-27 16:33:00,
2013-04-27 12:42:00,62.0,29.0,30.37,NE,36,1.0,4.0,28,0.00,,,0.00,,2013-04-27 16:42:00,
2013-04-27 12:53:00,61.0,25.0,30.35,ENE,57,0.0,7.0,25,0.00,,,0.00,,2013-04-27 16:53:00,
2013-04-27 13:02:00,63.0,29.0,30.35,WSW,241,0.0,3.0,28,0.00,,,0.00,,2013-04-27 17:02:00,
2013-04-27 13:12:00,63.0,29.0,30.35,WSW,241,0.0,3.0,28,0.00,,,0.00,,2013-04-27 17:12:00,
2013-04-27 13:22:00,63.0,31.0,30.34,NE,45,1.0,4.0,30,0.00,,,0.00,,2013-04-27 17:22:00,
2013-04-27 13:32:00,62.0,26.0,30.34,East,95,1.0,5.0,25,0.00,,,0.00,,2013-04-27 17:32:00,
2013-04-27 13:42:00,62.0,26.0,30.34,East,95,1.0,5.0,25,0.00,,,0.00,,2013-04-27 17:42:00,
2013-04-27 13:53:00,63.0,26.0,30.33,NE,52,2.0,5.0,24,0.00,,,0.00,,2013-04-27 17:53:00,
2013-04-27 14:02:00,65.0,31.0,30.33,NNW,347,1.0,6.0,28,0.00,,,0.00,,2013-04-27 18:02:00,
2013-04-27 14:12:00,65.0,31.0,30.33,NNW,347,1.0,6.0,28,0.00,,,0.00,,2013-04-27 18:12:00,
2013-04-27 14:22:00,66.0,29.0,30.32,NW,306,0.0,3.0,25,0.00,,,0.00,,2013-04-27 18:22:00,
2013-04-27 14:32:00,65.0,24.0,30.32,East,86,1.0,7.0,21,0.00,,,0.00,,2013-04-27 18:32:00,
2013-04-27 14:42:00,65.0,24.0,30.32,East,86,1.0,7.0,21,0.00,,,0.00,,2013-04-27 18:42:00,
2013-04-27 14:52:00,65.0,26.0,30.31,East,82,2.0,6.0,23,0.00,,,0.00,,2013-04-27 18:52:00,
2013-04-27 15:02:00,65.0,25.0,30.31,East,99,1.0,4.0,22,0.00,,,0.00,,2013-04-27 19:02:00,
2013-04-27 15:11:00,65.0,25.0,30.31,East,99,1.0,4.0,22,0.00,,,0.00,,2013-04-27 19:11:00,
2013-04-27 15:22:00,67.0,30.0,30.30,West,274,0.0,2.0,25,0.00,,,0.00,,2013-04-27 19:22:00,
2013-04-27 15:32:00,66.0,27.0,30.29,ENE,68,0.0,3.0,23,0.00,,,0.00,,2013-04-27 19:32:00,
2013-04-27 15:42:00,66.0,27.0,30.29,ENE,68,0.0,3.0,23,0.00,,,0.00,,2013-04-27 19:42:00,
2013-04-27 15:53:00,66.0,27.0,30.29,WNW,288,0.0,4.0,23,0.00,,,0.00,,2013-04-27 19:53:00,
2013-04-27 16:02:00,66.0,27.0,30.28,South,175,0.0,3.0,23,0.00,,,0.00,,2013-04-27 20:02:00,
2013-04-27 16:11:00,66.0,27.0,30.28,South,175,0.0,3.0,23,0.00,,,0.00,,2013-04-27 20:11:00,
2013-04-27 16:22:00,67.0,29.0,30.28,NW,308,0.0,4.0,24,0.00,,,0.00,,2013-04-27 20:22:00,
2013-04-27 16:32:00,66.0,30.0,30.27,ENE,74,0.0,3.0,26,0.00,,,0.00,,2013-04-27 20:32:00,
2013-04-27 16:42:00,66.0,30.0,30.27,ENE,74,0.0,3.0,26,0.00,,,0.00,,2013-04-27 20:42:00,
2013-04-27 16:52:00,67.0,28.0,30.27,NNE,20,1.0,4.0,23,0.00,,,0.00,,2013-04-27 20:52:00,
2013-04-27 17:02:00,67.0,29.0,30.27,WNW,294,1.0,4.0,24,0.00,,,0.00,,2013-04-27 21:02:00,
2013-04-27 17:12:00,67.0,29.0,30.27,WNW,294,1.0,4.0,24,0.00,,,0.00,,2013-04-27 21:12:00,
2013-04-27 17:21:00,67.0,30.0,30.27,NE,49,0.0,2.0,25,0.00,,,0.00,,2013-04-27 21:21:00,
2013-04-27 17:33:00,67.0,30.0,30.27,ENE,61,0.0,1.0,25,0.00,,,0.00,,2013-04-27 21:33:00,
2013-04-27 17:43:00,67.0,30.0,30.27,ENE,61,0.0,1.0,25,0.00,,,0.00,,2013-04-27 21:43:00,
2013-04-27 17:53:00,66.0,27.0,30.26,ESE,107,0.0,3.0,23,0.00,,,0.00,,2013-04-27 21:53:00,
2013-04-27 18:03:00,66.0,28.0,30.26,ESE,109,0.0,1.0,24,0.00,,,0.00,,2013-04-27 22:03:00,
2013-04-27 18:13:00,66.0,28.0,30.26,ESE,109,0.0,1.0,24,0.00,,,0.00,,2013-04-27 22:13:00,
2013-04-27 18:23:00,66.0,29.0,30.26,ESE,109,0.0,1.0,25,0.00,,,0.00,,2013-04-27 22:23:00,
2013-04-27 18:32:00,66.0,28.0,30.25,ESE,109,0.0,2.0,24,0.00,,,0.00,,2013-04-27 22:32:00,
2013-04-27 18:42:00,66.0,28.0,30.25,ESE,109,0.0,2.0,24,0.00,,,0.00,,2013-04-27 22:42:00,
2013-04-27 18:53:00,66.0,27.0,30.25,East,98,0.0,2.0,23,0.00,,,0.00,,2013-04-27 22:53:00,
2013-04-27 19:02:00,66.0,28.0,30.25,East,98,0.0,1.0,24,0.00,,,0.00,,2013-04-27 23:02:00,
2013-04-27 19:12:00,66.0,28.0,30.25,East,98,0.0,1.0,24,0.00,,,0.00,,2013-04-27 23:12:00,
2013-04-27 19:22:00,65.0,31.0,30.25,South,169,1.0,3.0,28,0.00,,,0.00,,2013-04-27 23:22:00,
2013-04-27 19:32:00,63.0,33.0,30.25,South,175,0.0,1.0,32,0.00,,,0.00,,2013-04-27 23:32:00,
2013-04-27 19:42:00,63.0,33.0,30.25,South,175,0.0,1.0,32,0.00,,,0.00,,2013-04-27 23:42:00,
2013-04-27 19:52:00,62.0,33.0,30.25,SSE,163,0.0,2.0,34,0.00,,,0.00,,2013-04-27 23:52:00,
2013-04-27 20:01:00,60.0,32.0,30.26,SSE,150,0.0,1.0,34,0.00,,,0.00,,2013-04-28 00:01:00,
2013-04-27 20:12:00,60.0,32.0,30.26,SSE,150,0.0,1.0,34,0.00,,,0.00,,2013-04-28 00:12:00,
2013-04-27 20:22:00,60.0,32.0,30.26,SSE,150,0.0,1.0,35,0.00,,,0.00,,2013-04-28 00:22:00,
2013-04-27 20:32:00,59.0,32.0,30.27,SSE,151,0.0,1.0,36,0.00,,,0.00,,2013-04-28 00:32:00,
2013-04-27 20:43:00,59.0,32.0,30.27,SSE,151,0.0,1.0,36,0.00,,,0.00,,2013-04-28 00:43:00,
2013-04-27 20:52:00,59.0,33.0,30.27,SSE,152,0.0,0.0,37,0.00,,,0.00,,2013-04-28 00:52:00,
2013-04-27 21:02:00,58.0,33.0,30.28,SSE,151,0.0,0.0,38,0.00,,,0.00,,2013-04-28 01:02:00,
2013-04-27 21:11:00,58.0,33.0,30.28,SSE,151,0.0,0.0,38,0.00,,,0.00,,2013-04-28 01:11:00,
2013-04-27 21:22:00,57.0,32.0,30.28,SSE,151,0.0,0.0,39,0.00,,,0.00,,2013-04-28 01:22:00,
2013-04-27 21:32:00,56.0,33.0,30.28,SSE,151,0.0,0.0,41,0.00,,,0.00,,2013-04-28 01:32:00,
2013-04-27 21:42:00,56.0,33.0,30.28,SSE,151,0.0,0.0,41,0.00,,,0.00,,2013-04-28 01:42:00,
2013-04-27 21:52:00,57.0,32.0,30.28,South,190,1.0,5.0,38,0.00,,,0.00,,2013-04-28 01:52:00,
2013-04-27 22:02:00,57.0,32.0,30.29,South,189,0.0,3.0,38,0.00,,,0.00,,2013-04-28 02:02:00,
2013-04-27 22:12:00,57.0,32.0,30.29,South,189,0.0,3.0,38,0.00,,,0.00,,2013-04-28 02:12:00,
2013-04-27 22:22:00,56.0,32.0,30.29,West,264,0.0,0.0,40,0.00,,,0.00,,2013-04-28 02:22:00,
2013-04-27 22:32:00,56.0,32.0,30.29,South,181,1.0,3.0,40,0.00,,,0.00,,2013-04-28 02:32:00,
2013-04-27 22:42:00,56.0,32.0,30.29,South,181,1.0,3.0,40,0.00,,,0.00,,2013-04-28 02:42:00,
2013-04-27 22:52:00,55.0,32.0,30.29,South,180,0.0,0.0,41,0.00,,,0.00,,2013-04-28 02:52:00,
2013-04-27 23:01:00,54.0,31.0,30.29,South,181,0.0,0.0,41,0.00,,,0.00,,2013-04-28 03:01:00,
2013-04-27 23:11:00,54.0,31.0,30.29,South,181,0.0,0.0,41,0.00,,,0.00,,2013-04-28 03:11:00,
2013-04-27 23:21:00,54.0,31.0,30.29,South,180,0.0,0.0,41,0.00,,,0.00,,2013-04-28 03:21:00,
2013-04-27 23:33:00,54.0,31.0,30.28,South,180,0.0,0.0,42,0.00,,,0.00,,2013-04-28 03:33:00,
2013-04-27 23:43:00,54.0,31.0,30.28,South,180,0.0,0.0,42,0.00,,,0.00,,2013-04-28 03:43:00,
2013-04-27 23:53:00,53.0,31.0,30.28,South,180,0.0,0.0,42,0.00,,,0.00,,2013-04-28 03:53:00,